GFSNGP_2pvu_pres_204.txt.gz
Presure
201 208 194 186 211 235 205 204 196 147 191 207 215 237 261 288 349 387 379 258 251 230 231 222 199 189 212 190 187 178 182 183 178 201 184 182 182 188 188 183 187 191 190 189
213 215 209 190 208 224 206 210 182 188 207 213 199 216 236 256 280 338 385 387 252 226 246 231 222 206 197 236 196 191 186 186 187 187 183 183 185 188 187 192 182 199 190 190
215 208 202 193 197 206 214 229 210 197 206 154 199 210 215 233 251 270 309 371 361 247 245 214 236 228 218 209 206 194 195 195 191 191 190 198 219 206 205 191 189 194 195 191
218 196 214 202 206 222 198 216 166 172 198 167 205 206 200 207 225 241 260 284 346 381 276 245 230 216 225 215 207 197 201 207 208 200 201 202 197 191 194 195 192 197 196 200
233 228 213 201 204 199 193 231 199 198 215 203 201 199 203 202 205 218 231 247 262 291 352 372 264 247 233 231 229 223 218 208 198 210 210 213 210 207 208 206 203 202 205 207
243 239 237 216 214 195 195 235 192 222 202 211 190 197 199 202 184 206 201 218 225 243 259 275 314 355 374 250 228 220 216 214 212 219 225 225 224 220 215 219 218 225 221 217
279 270 274 233 213 223 227 223 226 195 217 223 208 200 206 192 199 192 170 204 208 215 218 230 245 260 273 294 315 335 338 273 237 217 212 223 208 208 205 204 233 229 282 259
316 307 263 235 233 228 215 238 235 229 220 217 205 211 198 204 199 158 199 195 197 192 198 206 209 216 220 226 239 251 265 271 275 278 278 275 272 265 238 232 224 209 204 207
334 312 308 258 238 239 240 240 235 223 215 202 219 217 216 208 201 196 193 197 196 192 200 193 193 194 200 204 205 205 205 205 205 205 205 206 206 209 211 211 209 206 205 206
352 340 311 255 261 218 245 246 234 226 225 238 230 219 233 209 212 204 194 192 192 192 201 199 200 198 198 194 201 203 203 203 202 202 202 201 199 199 199 193 192 193 196 195
352 337 282 307 229 256 223 234 238 240 234 235 229 215 222 226 211 205 210 203 199 192 190 192 191 200 190 196 195 195 197 195 194 187 191 188 196 201 200 208 208 187 199 194
303 308 344 312 300 265 251 237 225 234 232 216 217 222 220 229 211 194 207 203 204 204 205 204 200 196 197 198 199 194 191 192 185 189 196 197 205 203 205 211 208 219 222 227
331 339 363 323 297 275 197 245 243 237 236 228 224 213 207 212 228 230 235 216 207 207 210 211 204 203 205 203 214 203 203 212 192 197 213 200 219 212 224 220 206 233 244 196
168 325 328 319 295 276 283 251 245 233 243 237 232 214 210 229 215 224 234 219 243 202 212 205 207 212 203 211 197 215 212 194 217 205 224 197 206 227 230 194 238 230 242 249
294 317 325 321 310 266 265 278 263 249 239 240 239 231 219 214 215 217 228 226 206 190 200 206 215 219 204 211 211 210 210 212 228 212 200 241 192 203 186 228 238 245 249 259
166 306 301 319 310 286 250 271 264 252 243 236 242 237 228 216 218 216 216 210 220 223 209 216 216 226 226 228 229 180 226 220 231 230 215 226 234 227 241 246 248 249 260 257
392 233 113 330 311 257 263 281 273 258 245 238 233 236 233 232 216 213 219 222 221 224 225 224 224 223 216 207 201 220 218 222 229 240 240 175 244 249 242 245 260 263 257 255
170 242 286 320 177 127 187 292 287 270 254 241 235 233 239 234 230 232 226 221 219 219 226 224 220 219 216 216 218 218 221 232 231 239 247 248 249 255 260 262 263 258 264 287
401 437 436 294 323 318 307 294 222 283 263 252 247 243 245 237 234 231 229 234 230 226 224 223 219 220 224 231 236 235 236 237 239 245 249 258 258 262 263 263 263 279 298 306
387 402 425 465 277 320 316 274 303 225 273 266 261 253 246 244 237 234 233 228 230 229 230 234 239 244 240 236 236 239 241 243 247 258 261 257 259 264 265 276 288 306 303 285
411 431 448 477 451 290 298 189 316 280 266 270 274 257 250 242 239 237 238 240 243 243 243 246 251 248 247 243 245 247 252 254 255 259 261 264 266 273 284 295 310 289 282 304
331 432 465 459 488 373 285 296 302 309 255 274 276 273 266 254 253 256 268 270 265 254 248 254 256 254 251 251 258 261 260 259 265 265 266 274 281 293 306 295 280 284 337 409
599 381 445 408 387 376 284 291 294 303 306 303 281 259 260 258 260 265 265 265 268 272 275 273 270 268 268 270 268 266 264 265 274 280 283 294 299 310 278 275 308 392 401 391
378 346 453 385 370 276 268 273 280 288 295 294 287 271 263 259 261 257 251 252 277 279 259 272 278 279 278 275 272 272 282 284 286 292 297 301 279 270 290 332 419 402 387 366
327 322 322 333 316 262 266 268 270 273 282 284 284 283 275 270 250 250 253 257 269 278 278 279 278 280 286 287 285 286 285 293 290 294 279 269 284 309 353 416 396 374 353 320
311 309 303 306 317 296 249 249 267 274 278 279 281 282 278 272 269 273 280 282 282 282 282 284 285 282 279 282 293 291 281 287 282 269 287 300 334 420 407 388 366 338 352 360
299 299 295 295 293 279 256 257 253 268 276 275 271 269 274 280 281 279 275 277 279 279 278 271 282 291 290 280 277 280 283 283 290 303 327 416 415 393 371 360 322 366 357 348

GFSNGP_2pvu_pres_207.txt.gz
Presure
218 208 215 214 206 211 208 178 215 212 203 184 169 192 229 246 274 299 371 393 212 211 193 197 188 192 194 187 185 190 173 175 178 188 193 191 170 189 201 166 176 174 176 186
227 206 208 217 218 215 216 204 200 196 212 131 201 219 134 230 248 276 299 378 222 206 214 193 193 194 185 181 187 179 185 165 185 188 178 173 190 198 173 152 164 176 187 167
251 236 240 210 208 204 228 219 208 206 219 208 201 174 214 222 230 251 275 298 366 235 197 190 191 192 190 192 193 191 183 182 172 199 178 179 163 168 197 182 177 177 167 184
272 260 270 227 228 204 212 207 199 202 203 219 221 202 201 214 218 228 248 271 289 340 209 203 206 204 196 188 182 167 181 176 180 181 181 181 190 190 184 179 183 182 180 179
296 272 278 292 158 221 227 228 214 188 203 209 225 215 194 197 214 200 225 242 267 279 312 370 204 197 194 193 191 191 191 187 187 185 183 177 180 185 174 171 171 183 173 185
309 318 311 291 294 232 220 227 219 231 230 194 222 220 218 200 199 210 215 222 237 259 273 287 317 358 209 202 195 204 185 234 177 172 173 184 175 171 182 187 193 191 184 217
293 301 319 319 306 275 239 172 229 237 218 240 214 240 206 217 204 203 210 213 221 230 244 260 276 293 312 311 237 223 217 197 208 198 189 190 191 192 195 196 214 200 198 184
365 385 373 315 251 123 266 189 237 230 236 233 188 233 213 222 213 204 202 197 209 213 221 228 240 253 267 282 298 312 248 250 233 213 206 223 224 224 232 226 216 214 238 229
338 353 340 317 134 369 310 94 236 233 231 234 230 227 187 223 228 215 200 203 192 204 211 214 217 223 228 239 142 262 271 279 283 283 291 293 292 289 285 280 274 271 250 246
326 335 334 93 90 137 346 295 266 255 256 255 245 249 253 234 190 229 218 210 201 199 202 174 209 128 216 218 222 225 226 229 235 237 239 240 240 239 239 236 235 232 228 225
446 459 314 336 353 344 364 312 287 258 246 251 252 250 243 240 225 220 220 215 213 207 208 205 200 196 202 206 207 210 214 215 215 216 215 216 216 216 216 216 216 215 214 211
451 400 404 427 330 352 356 320 304 275 251 240 241 253 244 239 221 223 200 199 211 212 210 207 201 202 201 199 198 195 195 199 198 197 204 202 200 203 203 198 203 201 201 204
451 397 384 414 314 346 360 330 309 301 280 265 255 247 250 240 232 225 213 226 216 230 205 208 211 210 204 202 201 200 202 206 208 205 204 204 203 202 204 204 204 210 213 214
423 102 377 373 314 330 357 321 319 286 301 267 252 245 248 242 236 229 228 225 225 224 214 216 209 210 210 202 211 208 211 212 208 204 206 205 206 215 214 207 208 217 223 219
398 388 381 363 324 326 341 326 296 294 266 255 262 253 233 236 234 237 231 228 224 224 224 203 214 204 202 212 216 212 213 212 213 217 211 209 220 226 218 213 231 238 230 227
180 420 399 337 212 308 284 317 319 273 282 287 273 259 244 232 235 228 236 227 207 178 233 222 217 222 229 233 231 227 241 240 233 192 205 220 231 237 241 230 225 226 240 245
393 426 401 416 398 306 321 280 276 318 291 291 279 259 253 238 239 237 229 231 230 232 230 225 217 221 230 232 232 231 234 236 234 235 232 231 232 231 228 205 238 245 244 247
364 402 406 234 385 299 294 311 294 332 307 291 282 271 256 256 247 243 238 241 237 234 235 236 233 229 231 232 228 228 229 230 232 233 233 233 233 236 240 252 257 250 252 259
342 198 379 429 421 332 271 303 123 123 300 286 281 271 269 249 249 249 256 242 239 239 238 240 240 238 238 238 236 233 235 236 236 237 239 240 240 241 250 257 259 262 268 280
344 343 350 383 372 366 293 294 308 317 318 287 275 269 263 268 269 264 267 261 247 238 237 241 243 240 236 236 238 237 237 239 235 238 242 243 251 255 258 273 281 284 284 272
392 392 392 363 400 354 367 287 297 301 304 257 276 266 254 248 248 272 265 261 253 246 242 239 239 241 242 241 240 240 241 244 243 250 254 260 267 284 287 288 286 287 287 291
396 385 384 391 392 401 349 273 281 294 298 294 291 252 255 256 267 276 274 269 259 253 251 248 249 250 249 248 246 241 245 250 252 267 293 299 296 290 291 293 295 293 291 289
430 408 380 409 410 402 444 450 277 286 287 274 296 283 260 284 283 282 278 274 269 268 265 264 263 259 255 254 252 251 264 279 277 268 265 272 291 295 297 293 288 285 281 282
450 436 397 417 449 434 449 447 269 272 299 298 301 299 290 278 277 247 278 280 275 276 277 279 280 278 280 281 271 269 271 255 263 288 293 294 295 291 290 287 277 276 285 332
337 377 375 383 382 397 382 324 286 279 263 265 294 290 284 288 289 289 289 290 275 269 262 281 278 269 268 268 264 257 267 290 293 294 293 283 295 289 277 271 283 331 331 413
310 306 311 315 335 357 368 250 311 283 247 257 260 267 273 277 280 286 289 293 297 297 297 296 293 292 291 285 280 291 291 289 282 274 284 285 285 276 307 333 330 370 396 377
293 297 290 290 294 302 308 315 324 321 250 251 262 258 258 272 275 276 277 281 283 283 284 287 286 282 285 288 279 280 271 267 277 285 295 288 337 331 327 417 415 384 372 360

GFSNGP_2pvu_pres_213.txt.gz
Presure
247 251 249 245 247 248 253 241 246 226 226 227 226 233 218 218 217 192 228 238 256 277 389 380 247 232 201 198 190 192 189 185 179 175 183 178 179 183 176 175 178 170 176 176
254 245 249 256 263 258 255 250 251 242 230 232 227 224 191 218 212 222 219 230 143 262 308 377 320 229 210 217 201 191 189 179 176 169 172 176 173 173 175 167 175 182 178 179
272 256 259 234 205 246 257 256 265 275 274 230 224 227 173 227 202 220 206 162 233 198 271 383 326 246 226 214 198 195 193 186 188 188 187 170 177 180 175 175 178 187 182 192
264 260 268 187 270 259 253 268 261 269 274 275 275 223 231 234 222 178 220 207 223 237 150 350 319 308 234 221 208 199 186 196 185 187 188 188 178 178 187 174 188 182 173 174
268 270 280 276 280 277 278 274 271 257 266 280 265 276 246 226 237 212 214 219 213 228 241 238 158 303 290 227 217 203 201 191 175 170 181 182 183 194 197 199 172 192 184 191
276 282 76 279 269 278 290 297 291 270 263 273 259 267 275 257 224 234 144 215 210 220 226 244 265 325 144 174 224 216 199 205 192 219 188 214 212 190 204 212 199 190 193 183
296 297 295 310 307 231 305 303 310 298 296 291 292 257 267 279 254 227 216 159 196 203 223 230 248 230 304 200 217 217 216 216 203 200 199 213 201 184 197 191 183 187 191 183
341 324 324 189 114 347 217 332 318 312 325 317 297 235 279 271 292 251 229 210 220 214 203 225 228 246 251 274 320 229 208 215 209 203 202 211 199 201 187 194 188 189 189 189
326 333 290 312 104 240 289 310 319 343 308 310 331 294 295 272 291 261 253 221 212 219 215 205 217 232 239 251 149 268 294 218 213 215 194 221 197 199 199 198 200 196 193 199
130 105 282 153 341 345 244 355 355 359 330 359 337 311 286 291 299 290 247 253 213 210 217 219 206 222 227 235 242 252 161 269 208 227 206 207 204 202 197 192 196 201 193 191
281 344 414 434 450 458 70 495 421 284 355 353 318 199 190 189 304 311 264 246 238 209 204 206 219 210 214 224 228 172 240 247 255 226 262 211 223 199 197 197 200 186 203 189
396 369 364 379 435 371 90 313 497 547 420 325 350 324 361 293 292 304 282 256 239 238 213 205 220 222 213 205 213 222 226 231 239 240 242 254 250 235 204 204 199 200 204 205
380 370 359 380 390 422 465 395 360 285 472 442 318 339 336 392 329 297 292 262 247 236 232 214 224 217 222 210 211 205 205 219 224 226 232 239 245 241 238 240 239 241 245 205
334 349 143 338 366 390 263 383 379 416 544 170 302 329 319 379 344 287 287 285 257 246 227 230 216 223 227 215 214 207 213 213 207 205 215 218 227 229 233 235 235 236 239 240
106 262 328 319 327 357 413 406 382 423 435 391 395 320 315 317 330 304 286 291 277 253 237 225 227 224 215 232 206 212 222 216 215 219 218 216 215 212 209 206 204 209 206 208
262 157 338 95 321 344 388 383 387 440 390 376 394 310 321 343 326 300 286 281 270 265 256 234 227 229 227 218 227 227 213 216 225 219 214 213 216 218 216 211 170 217 220 223
116 115 121 101 322 342 143 379 440 421 403 363 349 300 308 314 317 289 276 275 270 264 268 259 245 232 232 232 231 227 248 246 217 222 217 215 217 228 228 219 206 209 227 237
109 104 102 118 356 347 388 385 425 397 414 371 340 294 295 317 280 285 276 279 267 266 267 262 256 247 239 241 241 250 257 257 248 241 238 236 237 237 238 236 234 238 241 238
208 342 330 332 350 354 377 408 398 379 387 123 354 206 293 313 306 279 276 268 270 270 202 264 260 256 249 246 244 246 250 249 252 252 246 240 236 235 233 232 233 237 243 245
308 325 343 354 336 351 372 400 390 380 373 392 319 274 297 306 268 277 280 265 270 263 265 265 262 261 261 258 256 241 243 241 243 222 252 252 256 257 256 255 256 256 251 252
332 96 327 348 349 333 379 395 387 364 354 350 315 299 293 289 276 284 282 276 272 264 261 266 270 266 265 265 266 264 252 249 247 252 252 250 252 254 252 251 252 252 255 258
92 360 88 93 374 337 378 371 347 351 324 310 300 322 322 316 299 289 135 269 212 261 262 266 269 270 273 275 276 273 268 268 273 273 255 254 266 268 263 261 258 264 286 285
83 349 359 365 366 334 362 426 348 331 309 289 275 277 285 297 303 290 279 270 263 259 258 249 260 262 276 274 281 287 288 285 264 263 265 272 275 274 275 281 271 273 291 307
358 364 358 351 362 336 354 410 340 328 298 284 278 275 294 298 288 286 277 274 271 260 262 266 225 279 277 276 275 276 273 269 275 279 283 289 289 271 273 279 294 308 321 328
368 397 381 375 373 341 360 328 320 243 304 303 277 277 293 293 287 266 254 271 270 273 273 276 276 275 276 271 272 274 162 279 282 279 280 280 281 289 304 326 323 306 296 293
350 335 337 357 378 355 325 307 314 304 300 294 281 266 283 269 293 272 289 283 246 255 267 227 274 257 278 283 264 271 252 255 286 268 281 308 319 311 300 288 285 277 287 291
305 308 327 321 332 372 336 350 317 304 297 292 289 278 276 278 277 287 286 285 289 281 291 283 286 280 242 291 276 244 278 292 265 287 283 275 261 266 273 276 288 290 328 340

GFSNGP_2pvu_pres_219.txt.gz
Presure
263 255 258 254 252 257 258 252 256 242 263 229 232 243 244 242 245 243 236 213 223 221 234 267 270 232 216 204 198 198 201 205 193 190 188 186 182 177 181 198 183 174 168 189
272 264 258 254 244 246 259 256 264 248 256 247 243 235 254 242 244 240 243 238 213 225 219 226 257 276 235 215 205 203 201 198 194 196 189 185 184 182 183 177 180 182 172 180
281 269 260 258 254 251 251 255 259 192 260 260 255 247 252 255 251 244 243 243 237 212 223 221 226 247 269 285 223 214 206 202 202 195 187 187 188 181 185 180 184 186 179 170
270 271 271 261 253 255 256 255 257 259 264 264 262 261 253 256 260 260 245 247 242 241 221 218 228 224 234 255 277 297 233 218 211 203 198 192 186 187 184 183 182 195 177 177
282 277 250 266 268 267 265 261 259 263 269 271 264 262 257 256 254 259 269 265 247 245 240 229 220 227 224 231 237 273 331 312 234 216 211 198 190 191 180 181 184 176 178 185
296 303 295 277 284 280 281 291 273 274 279 278 282 278 270 263 260 269 268 280 276 241 239 238 238 221 226 234 227 253 304 300 300 371 225 206 197 186 171 187 183 176 180 183
311 89 236 181 226 300 302 290 189 84 290 82 289 284 283 275 273 278 279 272 278 280 282 243 237 215 217 225 224 228 284 269 284 286 345 221 203 195 193 188 183 190 191 180
313 274 240 185 275 288 296 302 330 315 333 328 261 308 128 299 275 278 282 276 274 281 292 296 243 235 229 200 231 223 197 265 152 272 285 297 222 204 197 195 189 191 159 151
456 461 406 182 325 332 333 331 325 336 333 334 311 324 343 352 328 293 287 286 292 284 287 294 298 237 228 222 214 213 236 130 254 255 253 260 152 153 205 199 195 195 194 190
97 449 282 438 443 428 421 425 436 311 342 348 337 353 318 305 337 360 363 327 292 285 292 300 293 263 233 224 214 227 216 243 271 253 255 267 260 264 257 180 202 148 150 150
386 83 393 218 391 399 224 397 364 393 398 407 367 237 350 363 306 304 313 363 347 292 288 299 292 260 245 228 222 216 215 225 257 259 252 259 142 249 253 248 212 171 132 187
109 237 364 351 364 368 367 364 360 364 375 384 183 436 470 432 350 301 300 309 332 286 290 296 286 266 255 234 226 216 213 214 224 260 252 250 254 259 263 258 256 230 150 209
338 344 342 342 346 348 356 354 350 342 336 80 366 279 156 445 473 343 354 298 312 356 305 292 274 266 257 242 229 223 214 218 215 222 257 260 261 248 251 259 259 263 257 247
334 330 334 344 335 344 338 329 337 331 336 340 356 342 156 198 446 400 345 343 300 349 328 281 283 284 254 243 237 225 223 215 219 203 213 223 235 257 252 265 257 255 262 253
319 316 320 324 322 328 176 340 354 320 324 336 356 266 386 410 417 509 343 348 285 332 346 323 292 294 255 247 239 231 224 224 217 219 220 214 219 223 225 235 243 250 255 258
313 317 314 165 150 304 297 314 338 334 353 322 353 411 400 396 425 530 366 344 314 309 295 330 294 295 266 254 241 238 235 224 221 216 221 221 218 215 218 219 219 223 229 234
307 306 318 302 340 208 347 368 385 365 331 328 358 401 391 411 481 500 329 334 321 301 299 307 286 284 308 252 240 238 236 237 226 216 216 216 216 213 217 209 202 203 209 213
317 320 313 311 314 320 346 332 361 366 341 354 393 438 412 416 449 477 319 331 325 309 301 287 288 287 302 288 242 230 236 236 237 235 227 224 216 213 214 213 213 214 216 217
373 402 408 213 249 325 340 315 114 113 126 410 424 430 443 427 433 447 315 314 313 305 315 284 275 263 283 280 267 248 243 240 239 237 238 239 233 227 225 223 223 225 225 226
332 331 335 155 317 329 119 335 157 112 132 394 391 399 411 404 408 293 299 311 295 295 285 273 267 256 265 266 270 253 247 246 206 241 242 240 241 243 241 240 241 243 244 240
321 325 324 324 327 101 101 103 114 370 373 359 373 375 364 380 346 275 303 293 286 311 285 276 265 261 257 256 266 264 259 249 241 243 242 245 247 248 247 247 247 247 249 250
343 341 288 103 93 288 164 104 348 360 357 345 354 347 358 345 273 285 296 296 289 275 279 273 262 255 256 253 254 264 265 262 259 258 258 255 251 244 245 248 250 254 257 262
340 281 89 327 317 338 347 335 332 343 343 343 341 339 323 276 265 285 276 282 271 270 270 254 261 276 258 266 263 270 271 276 276 279 280 275 254 252 255 256 258 260 268 272
341 342 331 90 330 342 330 319 336 345 323 317 318 332 286 263 251 283 246 277 272 270 263 262 261 260 260 260 259 262 268 273 273 276 277 281 284 291 298 299 295 300 305 292
328 352 351 314 338 330 315 318 324 324 315 309 324 309 284 258 284 278 267 272 266 261 150 265 266 135 162 257 278 270 269 270 250 276 281 256 255 277 268 276 258 295 265 269
325 327 335 344 326 312 307 303 313 319 326 301 318 286 279 272 276 273 277 264 275 264 264 264 254 260 262 263 265 268 248 215 256 266 266 250 284 239 252 273 281 274 276 270
299 318 343 347 312 302 303 299 301 301 313 310 290 280 289 303 274 274 273 273 271 263 263 266 265 264 266 269 277 280 276 246 276 256 238 284 263 271 277 270 274 273 279 295